TELSTAR 18V (APSTAR 5C) (43611 NORAD) Tracking and Keplerian Element Data

This shows tracking and keplerian element data for the satellite.

Feedback or suggestion? Click here.




ElementValue
Catalog43611
NameTELSTAR 18V (APSTAR 5C)
Epoch Orbit1499
Epoch Day269.33935663
Epoch Year2022
RAAN184.37
Inclination0.0238
Eccentricity0.0002268
Argument of Perigee354.671
Mean Anonmoly86.2499
Mean Motion1.00267032
Decay Rate-2.92E-06
L11 43611U 18069A 22269.33935663 -.00000292 00000+0 00000+0 0 9990
L22 43611 0.0238 184.3700 0002268 354.6710 86.2499 1.00267032 14999

Live tracking and technical data element details for TELSTAR 18V (APSTAR 5C) (NORAD 43611). TELSTAR 18V (APSTAR 5C) can be tracked NOW for your location showing map with azimuth and elevation plus other details from your city location.

Track the satellite on the map from your city or location and see movement details for azimuth, elevation, latitude, longitude, range, height, and movement on the map or in text.







IsCatalogInMostPopularTable: catalog: 43611, numindb: 874
Update: records affected: 1



GetName: 43611 TELSTAR 18V (APSTAR 5C)

Hit Count: updated at: Fri, 30 Sep 2022 02:50:13 GMT